Regional Weather Roundup
Issued by NWS

Home | Current Version | Previous Version | Graphics & Text | Print | Product List | Glossary On
Versions: 1 2 3 4 5 6 7 8 9 10 11 12 13 14 15 16 17 18 19 20 21 22 23 24 25 26 27
000
ASUS45 KCYS 242110
RWRWY

WYOMING REGIONAL WEATHER ROUNDUP
NATIONAL WEATHER SERVICE CHEYENNE WY
200 PM MST FRI FEB 24 2017

NOTE:  "FAIR" INDICATES FEW OR NO CLOUDS BELOW 12,000 FEET
WITH NO SIGNIFICANT WEATHER AND/OR OBSTRUCTIONS TO VISIBILITY.

WYZ001-242200-
YELLOWSTONE NATIONAL PARK

CITY           SKY/WX    TMP DP  RH WIND       PRES   REMARKS
LK YELLOWSTONE   N/A     14  10  84 VRB5      29.85S WCI   6
W YELLOWSTONE  NOT AVBL

$$
WYZ002>013-054>058-071-098>099-242200-
NORTHERN WYOMING

CITY           SKY/WX    TMP DP  RH WIND       PRES   REMARKS
JACKSON        MOSUNNY   21  12  68 S16       29.91S WCI   7
CODY           PTSUNNY   27  17  66 NE8       29.93S WCI  19
GREYBULL       CLOUDY    29  21  72 S6        29.97F WCI  23
WORLAND        CLOUDY    30  21  69 N3        29.96S
SHERIDAN       FAIR      27  19  72 S6        29.96S WCI  20
BUFFALO        PTSUNNY   25  18  74 S10       29.93R WCI  15
GILLETTE       CLOUDY    27  21  78 S12       29.96S WCI  17
HULETT         CLOUDY    28  21  74 MISG      29.98S
NEWCASTLE      CLOUDY    25  18  74 SW7       30.02S HAZE    WCI  17

$$
WYZ014>020-022>026-101>103-242200-
CENTRAL WYOMING

CITY           SKY/WX    TMP DP  RH WIND       PRES   REMARKS
BIG PINEY      CLOUDY    17   8  67 W3        29.90S
PINEDALE       FAIR      19   9  63 W8        29.90R WCI   9
DUBOIS         CLOUDY    19  10  68 S5        29.83S WCI  13
LANDER         FAIR      21  15  78 CALM      29.91S
RIVERTON       FAIR      21  15  78 E3        29.92F
CASPER         FAIR      22  12  65 W9        29.94S WCI  12
DOUGLAS        CLOUDY    20  16  84 SE9       29.97S WCI   9

$$
WYZ021-027>030-104>119-242200-
SOUTHERN WYOMING

CITY           SKY/WX    TMP DP  RH WIND       PRES   REMARKS
EVANSTON       CLOUDY    17  10  74 W20       29.94R WCI   1
FORT BRIDGER   CLOUDY    22  13  69 W18       29.96S WCI   8
ROCK SPRINGS   PTSUNNY   20  11  68 W18       29.91R WCI   5
DIXON            N/A     22  11  63 CALM      29.96R HAZE
RAWLINS          N/A     18  10  71 W12       29.89R WCI   5
SARATOGA       LGT SNOW  19  12  73 W17       29.89R WCI   4
LARAMIE        LGT SNOW  17  10  74 SE10      29.82R WCI   5
CHEYENNE       CLOUDY    20  11  68 VRB6      29.90S WCI  12
TORRINGTON     LGT SNOW  23  14  68 CALM      30.01S
PINE BLUFFS    CLOUDY    23  14  68 NW5       29.97S WCI  17

$$




USA.gov is the U.S. government's official web portal to all federal, state and local government web resources and services.